Regional Weather Roundup
Issued by NWS

Home | Current Version | Previous Version | Text Only | Print | Product List | Glossary On
Versions: 1 2 3 4 5 6 7 8 9 10 11 12 13 14 15 16 17 18 19 20 21 22 23 24 25 26 27 28 29 30 31 32 33 34 35 36 37 38 39 40 41 42 43 44 45 46 47 48 49 50
000
ASUS44 KOUN 281910
RWROK

WEATHER ROUNDUP FOR OKLAHOMA
NATIONAL WEATHER SERVICE NORMAN OK
100 PM CST SAT FEB 28 2015

NOTE: "FAIR" INDICATES FEW OR NO CLOUDS BELOW 12,000 FEET WITH NO
      SIGNIFICANT WEATHER AND/OR OBSTRUCTIONS TO VISIBILITY.

OKZ001>007-009>012-014-015-017-282000-
NORTHWEST OKLAHOMA AND THE PANHANDLE

CITY           SKY/WX    TMP DP  RH WIND       PRES   REMARKS
GAGE           FLURRIES  22  16  78 S9        30.26F WCI  12
ENID/WOODRING  LGT SNOW  25  21  86 SE6       30.36F FOG     WCI  18
$$

OKZ016-021>023-033>039-044-045-282000-
SOUTHWEST OKLAHOMA

CITY           SKY/WX    TMP DP  RH WIND       PRES   REMARKS
LAWTON/REGL    CLOUDY    26  23  88 NE3       30.35F FOG
LAWTON/FT SILL CLOUDY    24  23  93 E2        30.33F FOG
FREDERICK      CLOUDY    24  21  88 E6        30.32F FOG     WCI  17
CLINTON        CLOUDY    22  18  85 S8        30.30F FOG     WCI  12
HOBART         CLOUDY    23  20  88 E3        30.33F FOG
ALTUS AFB      CLOUDY    23  23  99 SE3       30.33F FOG
$$

OKZ018>020-024>031-282000-
CENTRAL OKLAHOMA

CITY           SKY/WX    TMP DP  RH WIND       PRES   REMARKS
OKLAHOMA CITY  FRZ DRZL  25  20  81 SE5       30.36F WCI  19
OKC/WILEY POST CLOUDY    24  20  84 CALM      30.37F FOG
OKC/TINKER AFB FRZ DRZL  24  21  89 VRB2      30.34F FOG
STILLWATER     LGT SNOW  25  21  85 E3        30.38F VSB 1
GUTHRIE        CLOUDY    24  20  84 E3        30.37F FOG
$$

OKZ008-013-054>072-282000-
NORTHEAST OKLAHOMA

CITY           SKY/WX    TMP DP  RH WIND       PRES   REMARKS
TULSA          LGT SNOW  26  22  84 SE6       30.43S VSB 3/4 WCI  19
TULSA/JONES    LGT SNOW  25  22  88 SE5       30.43F FOG     WCI  19
PONCA CITY     SNOW      24  20  84 E5        30.40F VSB 1/2 WCI  18
BARTLESVILLE   LGT SNOW  26  21  81 NE3       30.44F
MUSKOGEE       MIX PCPN  26  21  81 SE9       30.44F WCI  17
$$

OKZ032-040>043-046>053-073>077-282000-
SOUTH CENTRAL/SOUTHEAST OKLAHOMA

CITY           SKY/WX    TMP DP  RH WIND       PRES   REMARKS
ARDMORE/DWNTWN CLOUDY    28  27  93 CALM      30.38F FOG
MCALESTER      MIX PCPN  28  23  81 E3        30.39S
$$




USA.gov is the U.S. government's official web portal to all federal, state and local government web resources and services.